Wind_Speed
10 10 9 9 8 7 6 5 5 4 4 3 2 2 2 2 2 2 2 2 3 3 4 4 4 4 4 4 4 4 4 5 6 6 6 6 7 7 7 8 8 9 9
12 11 10 10 9 9 7 6 6 5 4 3 2 1 1 1 1 1 1 2 2 3 3 3 4 4 4 4 4 4 5 5 6 6 6 7 7 8 8 9 9 10 10
14 13 12 12 11 10 9 8 7 6 5 4 3 2 2 1 1 1 2 2 3 3 3 4 4 4 4 4 4 5 5 6 6 7 7 7 8 9 9 10 10 10 11
16 15 14 14 12 11 11 10 9 8 6 5 4 4 3 3 3 3 3 4 4 4 4 5 4 4 4 5 5 5 6 6 7 7 8 8 9 10 10 11 11 11 12
17 17 16 15 14 13 12 11 10 9 8 7 6 5 5 5 4 4 4 5 5 5 5 5 5 5 5 6 6 7 7 8 8 8 9 9 10 11 11 12 12 12 13
19 18 17 16 15 14 13 12 11 10 9 8 7 7 6 6 6 6 6 6 6 6 6 6 6 6 6 7 7 8 8 8 9 9 10 10 11 12 12 13 13 14 15
21 20 19 18 17 16 15 14 13 11 10 9 9 8 8 7 8 7 8 8 7 7 7 7 7 7 8 8 8 9 9 10 10 10 11 12 12 13 14 14 15 16 16
23 22 21 20 19 18 17 16 14 13 12 11 11 10 9 9 9 9 9 8 8 9 9 9 9 9 9 10 10 10 11 11 12 12 13 13 13 14 15 16 17 17 17
24 24 23 22 21 20 19 18 16 15 14 13 13 12 11 11 11 10 10 10 10 10 10 10 10 11 11 11 11 12 12 13 13 14 14 14 15 16 17 17 18 19 19
26 25 24 23 22 22 21 20 18 17 16 15 14 13 13 12 12 12 11 11 11 11 12 12 12 12 13 13 13 13 14 14 15 15 15 16 17 17 18 19 19 20 20
27 27 26 25 24 23 23 22 20 19 18 17 16 15 15 14 14 13 13 13 13 13 13 13 13 14 14 14 15 15 15 15 16 16 17 17 18 19 20 20 21 21 21
29 28 28 27 26 26 25 24 23 22 21 20 18 17 16 16 15 15 15 14 14 14 14 15 15 15 15 15 16 16 17 17 17 18 19 19 20 20 21 21 22 22 22
31 30 30 29 28 27 27 26 25 24 23 22 21 20 19 18 17 17 17 16 16 16 16 16 16 16 16 17 17 18 18 18 19 19 20 21 21 22 22 23 23 23 24
33 32 31 31 30 29 28 27 27 26 25 24 23 22 21 20 20 19 19 18 18 18 18 18 18 18 18 18 19 20 20 21 21 22 22 22 23 23 24 24 25 25 25
35 34 33 33 32 31 30 29 28 27 27 26 25 24 24 23 22 22 21 21 20 20 20 20 20 20 20 20 21 21 22 23 23 24 24 24 25 25 25 26 26 26 26
36 36 35 34 33 32 32 31 30 28 28 27 27 27 26 25 24 24 24 23 23 22 22 22 22 22 22 22 23 23 24 24 25 25 26 26 26 26 27 27 27 28 28
38 37 36 36 35 34 33 33 32 30 29 29 29 28 28 27 26 26 26 25 25 24 24 23 23 23 23 23 24 25 25 26 26 27 27 27 28 28 28 29 29 29 29
40 38 38 37 37 36 35 34 33 32 31 31 30 30 30 29 28 28 27 27 26 26 25 25 25 25 25 25 26 26 26 27 28 28 28 29 29 30 30 30 31 31 31
41 40 39 38 38 37 36 36 35 34 33 32 32 32 31 31 30 29 29 28 28 27 27 27 27 27 27 27 27 27 27 28 29 29 30 30 31 31 32 32 32 32 33
42 41 40 39 39 38 38 37 36 36 35 34 34 33 33 32 32 31 31 30 29 29 29 29 29 29 30 30 30 30 30 30 30 30 31 32 32 32 33 33 34 34 35
44 43 42 41 40 40 39 38 37 37 37 36 35 35 35 34 33 32 32 32 31 30 30 30 31 31 31 32 32 32 32 32 32 32 32 32 33 34 34 35 35 36 37
45 44 43 42 42 41 40 39 39 39 38 37 37 37 36 35 34 34 33 32 32 32 32 32 32 32 33 33 33 33 33 33 34 34 34 34 34 35 36 37 38 38 38
47 46 45 44 43 42 42 41 41 40 39 38 38 38 38 36 36 35 34 34 34 33 33 34 34 33 33 34 34 34 34 34 35 35 36 36 37 37 38 38 39 40 40
48 47 46 46 45 44 44 42 41 40 39 39 39 40 40 39 37 36 36 36 36 36 35 35 35 35 35 35 35 35 36 36 36 36 37 38 39 39 40 40 41 41 41
49 48 47 47 46 45 44 43 42 42 41 40 40 40 40 39 38 37 37 37 37 37 37 37 37 37 36 36 36 37 37 38 38 38 38 39 40 41 42 43 42 42 43
50 50 49 48 47 47 46 45 44 43 43 42 41 40 40 39 39 39 39 39 38 38 38 38 38 38 38 38 38 39 39 39 39 40 40 40 41 42 43 44 44 44 44
Wind_Direction
223 221 219 214 209 205 202 197 189 178 170 159 144 127 112 98 86 79 61 41 22 21 21 21 19 17 14 10 7 5 2 358 354 354 353 351 350 348 348 346 344 341 339
227 225 223 219 216 213 212 209 205 199 195 188 177 168 150 119 68 36 6 358 1 5 5 4 5 1 358 357 355 352 349 347 345 346 345 344 343 341 340 339 337 335 333
230 228 226 224 224 222 219 219 218 215 214 215 216 222 221 237 289 311 319 323 329 337 340 343 344 345 345 343 339 336 336 335 335 336 336 336 335 334 333 332 331 330 330
230 229 228 226 226 226 225 224 225 224 224 228 231 236 243 254 272 282 297 303 308 314 320 327 329 329 330 329 327 325 324 326 327 328 328 329 330 329 327 327 327 327 326
230 229 227 227 226 227 228 227 229 231 231 234 237 242 248 256 268 278 286 293 296 298 304 312 318 317 314 316 319 318 318 319 322 324 324 324 324 324 323 323 324 324 322
230 229 228 228 227 228 231 230 231 234 235 236 239 245 250 255 262 273 279 284 287 289 294 302 306 307 306 308 312 313 315 315 314 315 317 317 318 318 317 318 318 319 318
230 229 228 228 229 230 232 233 233 234 236 240 244 246 250 256 262 270 274 277 280 283 287 293 297 299 300 302 304 306 309 309 311 312 312 312 313 314 313 313 314 315 315
231 229 229 229 231 232 233 234 234 236 238 241 246 250 252 255 262 267 270 274 276 279 283 286 288 292 295 298 299 301 302 304 306 308 309 310 311 311 311 312 313 313 313
230 230 229 230 232 233 234 234 235 237 241 244 247 250 253 256 260 264 267 271 275 278 281 284 286 290 294 296 298 298 299 300 301 303 305 307 308 309 310 310 310 311 311
230 230 230 230 233 234 235 234 236 238 241 245 247 250 252 256 259 263 267 270 274 278 281 283 286 289 293 295 297 297 297 298 299 300 303 304 305 306 307 308 309 309 309
231 231 231 231 232 234 235 235 237 239 241 244 246 250 253 256 260 264 265 268 273 278 282 283 286 289 291 293 294 295 295 296 297 299 301 302 303 304 305 306 307 307 307
232 232 232 233 233 234 236 236 238 240 242 244 247 249 252 255 259 263 266 269 273 277 280 282 285 288 290 292 292 293 293 294 295 296 298 300 301 302 303 304 305 305 305
232 232 233 234 234 235 236 238 239 241 243 245 248 250 252 255 258 261 265 269 272 276 280 283 284 286 288 290 292 292 292 293 293 295 296 298 300 301 301 302 303 303 304
233 233 234 235 236 236 237 238 240 242 244 245 247 250 252 255 258 260 265 269 272 275 279 281 283 286 287 288 290 291 292 293 293 294 294 296 297 299 301 301 302 302 303
233 234 235 236 237 237 238 239 241 243 245 246 247 249 252 255 257 260 264 268 271 274 277 279 282 284 285 287 289 290 291 293 293 294 294 295 296 298 299 300 301 302 302
233 234 235 237 238 238 239 240 241 244 246 247 248 249 251 254 256 259 263 267 269 272 275 277 279 282 283 285 287 289 290 292 293 293 294 294 295 297 298 298 299 300 300
233 234 236 237 238 239 240 240 241 243 245 247 248 250 252 253 256 259 263 265 267 270 272 275 278 279 282 284 286 287 290 291 291 293 294 294 294 296 297 298 298 298 299
233 234 236 237 238 239 240 241 242 243 245 247 248 250 252 253 256 259 262 264 266 268 271 273 275 277 280 283 284 286 288 289 291 291 292 293 294 295 296 297 297 297 298
234 235 236 237 239 239 241 242 243 244 245 247 248 250 252 254 256 259 261 263 265 267 270 272 274 276 279 282 284 285 287 289 290 291 291 292 293 294 295 296 296 297 297
234 235 235 237 238 239 241 243 243 244 246 248 248 249 251 253 256 258 261 263 265 267 269 271 274 276 279 280 282 284 285 288 288 289 290 291 292 293 293 295 296 296 297
234 235 236 237 238 240 241 243 244 245 246 248 249 250 251 253 254 257 260 262 264 267 270 272 274 276 278 279 281 283 284 286 287 288 289 290 291 292 292 294 294 295 296
234 235 236 237 238 240 241 243 244 245 246 248 250 250 251 252 255 257 259 261 264 267 270 272 274 277 279 280 281 282 284 286 287 288 289 290 291 292 293 294 294 295 296
234 235 237 237 238 240 241 243 244 245 247 249 250 252 252 254 256 257 259 261 263 266 269 272 274 277 279 280 282 283 284 285 287 288 289 290 291 292 294 294 294 295 295
235 236 237 238 238 240 241 243 244 245 247 249 251 252 252 254 255 257 259 261 263 266 269 272 274 277 278 279 281 283 284 285 286 287 288 290 291 292 293 294 295 295 296
234 235 237 238 239 240 241 242 243 245 247 249 251 252 253 253 254 256 259 261 264 266 269 271 274 276 277 278 280 283 284 285 286 287 288 289 290 292 293 294 294 295 296
235 236 237 238 239 240 241 242 243 245 247 249 251 252 252 254 255 257 258 261 263 266 268 271 273 275 276 278 280 282 283 284 286 287 288 290 290 291 292 293 294 295 295
Height
5864 5866 5867 5868 5870 5871 5872 5872 5873 5873 5874 5875 5875 5876 5877 5877 5878 5878 5879 5879 5879 5879 5879 5879 5880 5880 5880 5880 5879 5879 5879 5879 5879 5878 5878 5877 5877 5876 5875 5875 5874 5873 5873
5863 5864 5866 5867 5868 5870 5871 5872 5872 5873 5874 5874 5875 5876 5876 5877 5877 5878 5878 5879 5879 5879 5879 5879 5879 5880 5880 5879 5879 5879 5879 5878 5878 5878 5877 5877 5876 5875 5875 5874 5873 5872 5872
5861 5863 5864 5865 5867 5868 5869 5871 5871 5872 5873 5874 5874 5875 5876 5876 5877 5877 5878 5878 5879 5879 5879 5879 5879 5879 5879 5879 5879 5879 5878 5878 5877 5877 5877 5876 5875 5875 5874 5873 5872 5871 5870
5859 5860 5862 5864 5865 5867 5868 5869 5870 5871 5872 5873 5873 5874 5875 5876 5876 5877 5877 5878 5878 5878 5878 5878 5879 5878 5878 5878 5878 5878 5878 5877 5876 5876 5876 5875 5874 5873 5873 5872 5871 5870 5869
5856 5858 5860 5861 5863 5865 5866 5867 5868 5869 5870 5871 5872 5873 5874 5875 5875 5876 5876 5877 5877 5877 5877 5878 5878 5878 5877 5877 5877 5877 5876 5876 5875 5875 5874 5874 5873 5872 5871 5870 5869 5868 5867
5853 5855 5857 5859 5861 5862 5864 5865 5867 5868 5869 5870 5871 5872 5872 5873 5874 5874 5875 5875 5876 5876 5876 5876 5876 5876 5876 5876 5876 5876 5875 5875 5874 5873 5873 5872 5871 5870 5869 5868 5867 5866 5865
5850 5852 5854 5856 5858 5860 5862 5863 5864 5866 5867 5868 5869 5870 5871 5871 5872 5873 5873 5874 5874 5874 5875 5875 5875 5875 5875 5874 5874 5874 5873 5873 5872 5872 5871 5870 5869 5868 5867 5866 5865 5864 5863
5846 5849 5851 5853 5855 5857 5859 5860 5862 5863 5864 5866 5867 5868 5869 5869 5870 5871 5871 5872 5872 5872 5873 5873 5873 5873 5872 5872 5872 5872 5871 5871 5870 5870 5869 5868 5867 5866 5865 5864 5863 5861 5860
5842 5845 5847 5850 5852 5854 5856 5857 5859 5860 5862 5863 5864 5865 5866 5867 5868 5869 5869 5870 5870 5870 5870 5870 5870 5870 5870 5870 5870 5869 5869 5868 5868 5867 5866 5865 5864 5863 5862 5861 5860 5858 5857
5838 5841 5843 5846 5848 5850 5852 5854 5856 5857 5859 5860 5861 5862 5863 5864 5865 5866 5867 5867 5867 5868 5868 5868 5868 5868 5868 5867 5867 5867 5866 5866 5865 5864 5864 5863 5862 5860 5859 5858 5856 5855 5854
5833 5836 5839 5841 5844 5846 5848 5850 5852 5854 5856 5857 5858 5859 5861 5861 5862 5863 5864 5864 5865 5865 5865 5865 5865 5865 5865 5865 5864 5864 5863 5862 5862 5861 5860 5859 5858 5857 5856 5854 5853 5851 5850
5829 5832 5834 5837 5839 5841 5844 5846 5848 5850 5852 5853 5855 5856 5857 5858 5859 5860 5861 5861 5862 5862 5862 5862 5862 5862 5862 5861 5861 5860 5860 5859 5859 5858 5857 5856 5855 5853 5852 5850 5849 5847 5846
5823 5826 5829 5832 5834 5837 5839 5841 5843 5846 5848 5849 5851 5852 5854 5855 5856 5857 5857 5858 5858 5859 5859 5859 5858 5858 5858 5858 5857 5857 5856 5856 5855 5854 5853 5852 5851 5849 5848 5846 5845 5843 5841
5817 5820 5823 5826 5829 5831 5834 5836 5839 5841 5843 5845 5846 5848 5850 5851 5852 5853 5854 5854 5855 5855 5855 5855 5855 5855 5854 5854 5854 5853 5852 5852 5851 5850 5849 5848 5847 5845 5844 5842 5840 5839 5837
5810 5814 5817 5820 5823 5825 5828 5831 5833 5835 5838 5840 5841 5843 5845 5846 5847 5848 5849 5850 5850 5851 5851 5851 5851 5851 5850 5850 5849 5849 5848 5847 5846 5845 5844 5843 5842 5840 5839 5837 5835 5834 5832
5804 5807 5811 5814 5816 5819 5822 5825 5828 5830 5832 5834 5836 5838 5840 5841 5842 5844 5845 5845 5846 5846 5846 5847 5846 5846 5846 5845 5845 5844 5843 5843 5842 5840 5839 5838 5837 5835 5834 5832 5830 5828 5826
5796 5800 5804 5807 5810 5813 5816 5819 5822 5824 5826 5829 5831 5832 5834 5836 5837 5838 5839 5840 5841 5841 5841 5842 5842 5841 5841 5840 5840 5839 5838 5838 5837 5835 5834 5833 5831 5830 5828 5826 5825 5823 5821
5788 5793 5797 5800 5803 5807 5810 5813 5816 5818 5820 5822 5825 5826 5828 5830 5831 5832 5833 5834 5835 5836 5836 5836 5836 5836 5836 5835 5835 5834 5833 5832 5831 5830 5828 5827 5825 5824 5822 5820 5819 5817 5814
5781 5785 5789 5793 5797 5800 5803 5806 5809 5811 5814 5816 5818 5820 5822 5823 5825 5826 5827 5828 5829 5830 5830 5830 5830 5830 5830 5829 5829 5828 5827 5826 5825 5823 5822 5821 5819 5818 5816 5814 5812 5810 5808
5772 5777 5781 5785 5789 5792 5795 5798 5801 5804 5807 5809 5811 5813 5815 5817 5818 5820 5821 5822 5822 5823 5824 5824 5824 5824 5824 5823 5823 5822 5821 5820 5818 5817 5815 5814 5812 5811 5809 5807 5805 5803 5801
5764 5769 5773 5777 5781 5784 5788 5791 5794 5797 5799 5802 5804 5806 5808 5810 5811 5813 5814 5815 5816 5816 5817 5817 5817 5817 5817 5816 5816 5815 5814 5813 5812 5810 5809 5807 5806 5804 5802 5800 5798 5795 5793
5755 5760 5765 5769 5773 5777 5781 5784 5786 5789 5792 5794 5796 5798 5800 5802 5803 5805 5806 5807 5808 5809 5810 5810 5810 5810 5810 5809 5809 5808 5807 5807 5805 5803 5802 5800 5798 5796 5794 5792 5790 5787 5785
5746 5751 5756 5761 5765 5769 5772 5775 5778 5781 5783 5786 5789 5790 5792 5794 5796 5797 5799 5800 5801 5802 5802 5802 5803 5803 5802 5802 5801 5800 5800 5799 5798 5796 5794 5792 5790 5788 5786 5783 5781 5778 5776
5737 5742 5747 5751 5756 5759 5763 5766 5770 5773 5775 5778 5780 5782 5784 5786 5788 5789 5791 5792 5793 5794 5794 5794 5795 5794 5794 5794 5793 5792 5791 5790 5789 5788 5787 5784 5782 5779 5777 5774 5772 5769 5766
5727 5732 5737 5742 5746 5750 5754 5758 5761 5764 5766 5769 5771 5774 5776 5777 5779 5781 5782 5783 5784 5785 5786 5786 5786 5786 5786 5785 5785 5784 5783 5781 5780 5779 5778 5776 5773 5771 5768 5765 5762 5760 5757
5717 5722 5727 5732 5737 5741 5745 5748 5752 5755 5757 5760 5763 5765 5767 5768 5770 5772 5773 5774 5775 5776 5777 5777 5777 5777 5777 5776 5776 5775 5774 5773 5771 5769 5768 5767 5765 5762 5759 5756 5753 5750 5747